9A4AM-13 Weather Reports


time (UTC)temp
C
wind
direction
speed
KPH
gust
KPH
rain 1hr
cm
rain 24hr
cm
rain mn
cm
humidity
%
barometer
mb
20260506123753 29 0.0 0.0 0.00 0.00 0.00 10 -208.0
20260506122753 28 0.0 0.0 0.00 0.00 0.00 10 -207.9
20260506121753 26 0.0 0.0 0.00 0.00 0.00 10 -207.3
20260506120753 27 0.0 0.0 0.00 0.00 0.00 10 -207.6
20260506115753 26 0.0 0.0 0.00 0.00 0.00 10 -207.3
20260506114753 27 0.0 0.0 0.00 0.00 0.00 10 -207.5
20260506113753 27 0.0 0.0 0.00 0.00 0.00 10 -207.6
20260506112753 25 0.0 0.0 0.00 0.00 0.00 10 -206.7
20260506111753 24 0.0 0.0 0.00 0.00 0.00 10 -206.7
20260506110752 26 0.0 0.0 0.00 0.00 0.00 10 -207.2
20260506105752 27 0.0 0.0 0.00 0.00 0.00 10 -207.5
20260506104752 27 0.0 0.0 0.00 0.00 0.00 10 -207.5
20260506103752 26 0.0 0.0 0.00 0.00 0.00 10 -207.1
20260506102752 26 0.0 0.0 0.00 0.00 0.00 10 -207.1
20260506101752 25 0.0 0.0 0.00 0.00 0.00 10 -207.0
20260506100752 25 0.0 0.0 0.00 0.00 0.00 10 -206.7
20260506095752 23 0.0 0.0 0.00 0.00 0.00 10 -206.4
20260506094752 23 0.0 0.0 0.00 0.00 0.00 10 -206.5
20260506093752 25 0.0 0.0 0.00 0.00 0.00 10 -206.8
20260506092752 25 0.0 0.0 0.00 0.00 0.00 10 -206.8
20260506091752 25 0.0 0.0 0.00 0.00 0.00 10 -206.9
20260506090752 24 0.0 0.0 0.00 0.00 0.00 10 -206.7
20260506085752 22 0.0 0.0 0.00 0.00 0.00 10 -206.1
20260506084752 22 0.0 0.0 0.00 0.00 0.00 10 -206.1
20260506083752 21 0.0 0.0 0.00 0.00 0.00 10 -205.7
20260506082752 21 0.0 0.0 0.00 0.00 0.00 10 -205.7
20260506081752 20 0.0 0.0 0.00 0.00 0.00 10 -205.5
20260506080752 20 0.0 0.0 0.00 0.00 0.00 10 -205.5
20260506072753 19 0.0 0.0 0.00 0.00 0.00 10 -205.1
20260506071752 18 0.0 0.0 0.00 0.00 0.00 10 -205.1
20260506070752 18 0.0 0.0 0.00 0.00 0.00 10 -204.8
20260506061752 16 0.0 0.0 0.00 0.00 0.00 10 -204.2
20260506050752 12 0.0 0.0 0.00 0.00 0.00 10 -203.2
20260506044752 11 0.0 0.0 0.00 0.00 0.00 10 -203.0
20260506043752 11 0.0 0.0 0.00 0.00 0.00 10 -202.9
20260506042752 11 0.0 0.0 0.00 0.00 0.00 10 -203.0
20260506041752 11 0.0 0.0 0.00 0.00 0.00 10 -203.0
20260506040752 11 0.0 0.0 0.00 0.00 0.00 10 -202.9
20260506035751 11 0.0 0.0 0.00 0.00 0.00 10 -202.8
20260506034751 11 0.0 0.0 0.00 0.00 0.00 10 -202.7
20260506033751 10 0.0 0.0 0.00 0.00 0.00 10 -202.7
20260506032751 10 0.0 0.0 0.00 0.00 0.00 10 -202.6
20260506031751 10 0.0 0.0 0.00 0.00 0.00 10 -202.6
20260506030751 10 0.0 0.0 0.00 0.00 0.00 10 -202.6
20260506025751 10 0.0 0.0 0.00 0.00 0.00 10 -202.6
20260506024751 10 0.0 0.0 0.00 0.00 0.00 10 -202.7
20260506023751 10 0.0 0.0 0.00 0.00 0.00 10 -202.6
20260506022751 10 0.0 0.0 0.00 0.00 0.00 10 -202.6
20260506021751 10 0.0 0.0 0.00 0.00 0.00 10 -202.5
20260506020751 9 0.0 0.0 0.00 0.00 0.00 10 -202.4
20260506015751 10 0.0 0.0 0.00 0.00 0.00 10 -202.6
20260506014751 10 0.0 0.0 0.00 0.00 0.00 10 -202.6
20260506013751 10 0.0 0.0 0.00 0.00 0.00 10 -202.6
20260506012751 10 0.0 0.0 0.00 0.00 0.00 10 -202.5
20260506011751 10 0.0 0.0 0.00 0.00 0.00 10 -202.7
20260506010751 10 0.0 0.0 0.00 0.00 0.00 10 -202.6
20260506005751 10 0.0 0.0 0.00 0.00 0.00 10 -202.7
20260506004751 10 0.0 0.0 0.00 0.00 0.00 10 -202.7
20260506003751 11 0.0 0.0 0.00 0.00 0.00 10 -202.7
20260506002751 11 0.0 0.0 0.00 0.00 0.00 10 -202.8
20260506001751 11 0.0 0.0 0.00 0.00 0.00 10 -202.8
20260506000751 10 0.0 0.0 0.00 0.00 0.00 10 -202.6
20260505235751 11 0.0 0.0 0.00 0.00 0.00 10 -202.8
20260505234751 11 0.0 0.0 0.00 0.00 0.00 10 -202.9
20260505233751 11 0.0 0.0 0.00 0.00 0.00 10 -203.0
20260505232751 11 0.0 0.0 0.00 0.00 0.00 10 -203.0
20260505231751 11 0.0 0.0 0.00 0.00 0.00 10 -203.0
20260505230751 11 0.0 0.0 0.00 0.00 0.00 10 -202.8
20260505225751 11 0.0 0.0 0.00 0.00 0.00 10 -203.0
20260505224751 11 0.0 0.0 0.00 0.00 0.00 10 -203.0
20260505223751 12 0.0 0.0 0.00 0.00 0.00 10 -203.1
20260505222751 11 0.0 0.0 0.00 0.00 0.00 10 -203.0
20260505221751 11 0.0 0.0 0.00 0.00 0.00 10 -203.0
20260505220751 12 0.0 0.0 0.00 0.00 0.00 10 -203.2
20260505215751 12 0.0 0.0 0.00 0.00 0.00 10 -203.3
20260505214751 12 0.0 0.0 0.00 0.00 0.00 10 -203.3
20260505213751 12 0.0 0.0 0.00 0.00 0.00 10 -203.2
20260505212751 12 0.0 0.0 0.00 0.00 0.00 10 -203.3
20260505211751 13 0.0 0.0 0.00 0.00 0.00 10 -203.4
20260505210751 13 0.0 0.0 0.00 0.00 0.00 10 -203.5
20260505205751 13 0.0 0.0 0.00 0.00 0.00 10 -203.5
20260505204751 13 0.0 0.0 0.00 0.00 0.00 10 -203.5
20260505203751 13 0.0 0.0 0.00 0.00 0.00 10 -203.6
20260505202751 14 0.0 0.0 0.00 0.00 0.00 10 -203.7
20260505201750 13 0.0 0.0 0.00 0.00 0.00 10 -203.7
20260505200750 13 0.0 0.0 0.00 0.00 0.00 10 -203.6
20260505195751 14 0.0 0.0 0.00 0.00 0.00 10 -203.8
20260505194750 14 0.0 0.0 0.00 0.00 0.00 10 -203.8
20260505193751 15 0.0 0.0 0.00 0.00 0.00 10 -203.9
20260505192751 14 0.0 0.0 0.00 0.00 0.00 10 -203.8
20260505191751 15 0.0 0.0 0.00 0.00 0.00 10 -204.0
20260505190750 15 0.0 0.0 0.00 0.00 0.00 10 -204.0
20260505185750 15 0.0 0.0 0.00 0.00 0.00 10 -203.9
20260505184750 15 0.0 0.0 0.00 0.00 0.00 10 -204.0
20260505183751 15 0.0 0.0 0.00 0.00 0.00 10 -204.1
20260505182750 15 0.0 0.0 0.00 0.00 0.00 10 -204.1
20260505181750 15 0.0 0.0 0.00 0.00 0.00 10 -204.1
20260505180750 15 0.0 0.0 0.00 0.00 0.00 10 -204.1
20260505175750 15 0.0 0.0 0.00 0.00 0.00 10 -204.1
20260505174750 16 0.0 0.0 0.00 0.00 0.00 10 -204.2
20260505173750 16 0.0 0.0 0.00 0.00 0.00 10 -204.3
20260505172750 16 0.0 0.0 0.00 0.00 0.00 10 -204.2
20260505171750 15 0.0 0.0 0.00 0.00 0.00 10 -204.1
20260505170750 16 0.0 0.0 0.00 0.00 0.00 10 -204.2
20260505165750 15 0.0 0.0 0.00 0.00 0.00 10 -204.1
20260505164750 15 0.0 0.0 0.00 0.00 0.00 10 -204.1
20260505163750 16 0.0 0.0 0.00 0.00 0.00 10 -204.2
20260505162750 16 0.0 0.0 0.00 0.00 0.00 10 -204.3
20260505161750 16 0.0 0.0 0.00 0.00 0.00 10 -204.4
20260505160750 17 0.0 0.0 0.00 0.00 0.00 10 -204.8
20260505152750 18 0.0 0.0 0.00 0.00 0.00 10 -205.0
20260505151750 19 0.0 0.0 0.00 0.00 0.00 10 -205.2
20260505150750 20 0.0 0.0 0.00 0.00 0.00 10 -205.4
20260505124749 25 0.0 0.0 0.00 0.00 0.00 98 -206.7